Location: Newark
(25.5428°S, 54.5819°W)
Time: 07:34:58
(UTC+00:00)

Envisat - Visible Passes

Search period start: 22 July 2019 00:00
Search period end: 01 August 2019 00:00
Orbit: 764 x 766 km, 98.1° (Epoch: 22 July)

Date Brightness Start Highest point End Pass type
(mag) Time Alt. Az. Time Alt. Az. Time Alt. Az.
22 Jul 5.8 08:59:01 10° E 09:01:40 14° ESE 09:04:20 10° SE visible
22 Jul 3.3 22:53:12 14° S 22:57:38 66° WSW 23:02:39 10° NNW visible
23 Jul 3.2 22:15:58 10° SSE 22:20:55 48° E 22:25:48 10° N visible
23 Jul 5.8 23:56:59 10° SW 23:59:26 14° WSW 00:01:53 10° W visible
24 Jul 5.1 09:22:42 10° NE 09:26:56 27° ESE 09:31:12 10° SSE visible
24 Jul 4.4 21:40:31 10° SE 21:44:02 19° E 21:47:32 10° NE visible
24 Jul 4.5 23:18:40 11° S 23:23:01 34° WSW 23:27:33 10° NW visible
25 Jul 6.1 08:49:30 10° E 08:50:34 11° ESE 08:51:37 10° SE visible
25 Jul 2.9 22:41:16 10° S 22:46:25 87° WSW 22:51:30 10° NNW visible
26 Jul 3.9 09:47:22 10° NNE 09:52:18 52° ESE 09:57:16 10° S visible
26 Jul 3.6 22:04:57 10° SSE 22:09:39 36° E 22:14:18 10° NNE visible
26 Jul 5.5 23:44:56 10° SSW 23:48:19 18° WSW 23:51:41 10° WNW visible
27 Jul 5.5 09:12:03 10° ENE 09:15:47 21° ESE 09:19:33 10° SSE visible
27 Jul 4.0 23:06:59 10° S 23:11:50 44° WSW 23:16:39 10° NW visible
28 Jul 2.9 22:30:04 10° SSE 22:35:12 72° ENE 22:40:15 10° N visible
29 Jul 4.5 09:36:24 10° NE 09:41:06 39° ESE 09:45:52 10° S visible
29 Jul 3.9 21:54:03 10° SE 21:58:23 27° E 22:02:40 10° NNE visible
29 Jul 5.1 23:33:10 10° SSW 23:37:10 23° WSW 23:41:09 10° WNW visible
30 Jul 5.7 09:01:37 10° ENE 09:04:39 16° ESE 09:07:41 10° SSE visible
30 Jul 3.5 22:55:36 10° S 23:00:39 59° WSW 23:05:38 10° NNW visible
31 Jul 3.1 22:18:56 10° SSE 22:23:56 54° E 22:28:54 10° N visible
